[[{"header":{"parameterUnit":"m.s-1","parameterCategory":1,"la1":30.2991,"la2":30.254,"lo1":-89.0895,"lo2":-89.0444,"dy":0.0017,"dx":0.0017,"nx":28,"ny":28,"refTime":"2024-02-12T03:00:00:Z","depth":0,"parameterNumber":2,"parameterNumberName":"U-component_of_WINDS"},"data":[0,0,0,0,0,0,0,0,0,0,0,0,0,0,0,0,0,0,0,0,0,0,0,0,0,0,0,0,0,0,0,0,0,0,0,0,0,0,0,0,0,0,0,0,0,0,0,0,0,0,0,0,0,0,0,0,0,0,1.0952,1.0952,0,1.0967,1.0967,1.0967,1.0971,1.0971,1.0971,1.0971,1.0986,1.0986,1.0987,0,0,0,0,0,0,0,0,0,0,0,0,0,1.0927,1.0927,1.0952,1.0952,1.0952,1.0967,1.0967,1.0967,1.0971,1.0971,1.0971,1.0971,1.0986,1.0986,1.0987,0,0,0,0,0,0,0,0,0,0,0,0,0,1.0939,1.0927,1.0952,1.0956,1.0957,1.0967,1.0967,1.0967,1.0971,1.0971,1.0971,1.0971,1.0986,1.0986,1.0987,1.0994,0,0,1.0989,1.099,0,0,0,0,0,0,0,0,1.0938,1.094,1.0955,1.0956,1.0956,1.0967,1.0964,1.0976,1.0971,1.0966,1.0971,1.0971,1.098,1.0981,1.0984,1.0994,1.0995,1.0989,1.099,1.099,1.099,0,0,0,0,0,0,0,1.0938,1.0939,1.0958,1.0955,1.0956,1.0957,1.0959,1.0966,1.0973,1.0966,1.0967,1.0968,1.098,1.0983,1.0984,1.0995,1.0989,1.099,1.099,1.0991,1.1013,1.1013,0,0,0,0,0,0,1.0936,1.0939,1.0957,1.0958,1.0947,1.0958,1.096,1.0964,1.0973,1.0975,1.0968,1.0969,1.0982,1.0984,1.0985,1.0994,1.099,1.0991,1.0991,1.1013,1.1013,1.1013,0,0,0,0,0,0,1.0935,1.0938,1.0957,1.0948,1.0951,1.0958,1.0963,1.0964,1.0967,1.0975,1.0976,1.097,1.0982,1.0984,1.0992,1.0994,1.0991,1.0992,1.1012,1.1013,1.1013,1.1011,0,0,0,0,0,0,1.0935,1.0937,1.094,1.0948,1.0951,1.0963,1.0963,1.0964,1.0969,1.0969,1.0977,1.0978,1.0982,1.0991,1.0992,1.0995,1.0992,1.1012,1.1012,1.1013,1.1011,1.1011,1.1012,0,0,0,0,0,1.0934,1.0939,1.094,1.0942,1.0955,1.0963,1.0965,1.0969,1.0969,1.0972,1.0976,1.0978,1.0994,1.0991,1.0993,1.0997,1.1012,1.1012,1.1013,1.1011,1.1011,1.1012,0,0,0,0,0,0,1.093,1.094,1.0941,1.0949,1.0955,1.0964,1.0967,1.097,1.0976,1.0976,1.0981,1.0983,1.099,1.0994,1.0991,1.1004,1.1003,1.1004,1.1001,1.1001,1.1002,1.1001,1.0993,0,0,0,0,0,1.093,1.0936,1.0944,1.095,1.0954,1.096,1.0964,1.0967,1.0973,1.0976,1.0981,1.0987,1.0994,1.0998,1.1004,1.1012,1.1014,1.1015,1.1015,1.1016,1.1016,1.1021,1.1022,1.1014,1.1014,1.1014,0,0,1.093,1.0936,1.094,1.095,1.0955,1.0961,1.0962,1.0968,1.0973,1.0977,1.0985,1.0989,1.0996,1.1004,1.1008,1.1007,1.1019,1.1016,1.1016,1.1017,1.1021,1.1022,1.1023,1.1014,1.1014,1.1014,0,0,1.0934,1.0939,1.0945,1.095,1.0958,1.0962,1.0964,1.0972,1.0975,1.0983,1.0986,1.0992,1.1002,1.1008,1.1012,1.1018,1.102,1.102,1.1021,1.1026,1.1027,1.1027,1.103,1.103,1.102,1.102,1.102,0,1.0933,1.0942,1.0947,1.0954,1.0958,1.0962,1.0968,1.0973,1.0983,1.0986,1.0985,1.0999,1.1004,1.1014,1.1016,1.1019,1.1021,1.1019,1.1026,1.1027,1.1027,1.103,1.1031,1.102,1.102,1.102,1.102,0,1.0941,1.0948,1.0951,1.0961,1.0966,1.0972,1.0978,1.0982,1.0985,1.099,1.0998,1.1004,1.1012,1.1015,1.1017,1.1025,1.1025,1.1025,1.1024,1.1028,1.103,1.1031,1.102,1.102,1.102,1.102,0,0,1.0942,1.0955,1.0956,1.096,1.097,1.0975,1.0981,1.099,1.0993,1.1,1.1006,1.1015,1.1016,1.102,1.1024,1.1028,1.1033,1.1028,1.1028,1.1029,1.1042,1.1041,1.1042,1.1034,1.1034,1.1035,1.1041,0,1.0947,1.0959,1.0964,1.0974,1.098,1.0984,1.099,1.0996,1.1001,1.1007,1.1012,1.1018,1.1019,1.1022,1.1026,1.1031,1.1036,1.1031,1.104,1.104,1.1038,1.1044,1.1043,1.1049,1.1042,1.1042,1.1043,0,1.0954,1.0961,1.0971,1.098,1.0983,1.0988,1.0996,1.1002,1.1009,1.1012,1.1018,1.1021,1.1028,1.1027,1.1038,1.1034,1.1038,1.1042,1.1042,1.1043,1.1041,1.1045,1.1051,1.1052,1.1044,1.1044,1.1044,0,1.0954,1.0966,1.0974,1.0977,1.0988,1.0992,1.0996,1.1004,1.1008,1.1015,1.1018,1.1026,1.103,1.1036,1.1042,1.104,1.1052,1.1051,1.1054,1.1054,1.1056,1.1056,1.1063,1.1059,1.1059,1.1059,1.1059,0,1.0959,1.0965,1.0974,1.0979,1.0986,1.0992,1.0999,1.1004,1.101,1.1016,1.1021,1.1026,1.1033,1.1039,1.1044,1.1052,1.1053,1.1056,1.1057,1.1056,1.1055,1.1058,1.1058,1.1059,1.1059,1.1059,1.1059,0,1.096,1.0966,1.0975,1.0984,1.0987,1.0992,1.1,1.1005,1.101,1.1018,1.102,1.1028,1.1035,1.1041,1.1052,1.1054,1.1063,1.1064,1.1061,1.1061,1.1065,1.1064,1.1074,1.1076,1.107,1.107,1.107,0,1.0962,1.0967,1.0978,1.0982,1.0987,1.0994,1.0999,1.1005,1.101,1.1019,1.1023,1.1031,1.1038,1.1051,1.1057,1.1065,1.1067,1.1069,1.1068,1.1066,1.1067,1.1067,1.1067,1.107,1.107,1.107,1.107,0,1.0967,1.097,1.0977,1.0985,1.0991,1.0998,1.1004,1.1008,1.1015,1.1021,1.1029,1.1034,1.1045,1.1053,1.1062,1.1067,1.107,1.107,1.1072,1.107,1.1068,1.107,1.1061,1.107,1.107,1.107,1.107,1.107,1.0969,1.0973,1.0982,1.0989,1.0995,1.1002,1.1007,1.1013,1.102,1.1029,1.1033,1.1041,1.1049,1.1061,1.1066,1.1073,1.1073,1.1075,1.1075,1.1076,1.1076,1.1067,1.1075,1.1075,1.1075,1.1075,1.1075,0,1.0973,1.0979,1.0986,1.0996,1.1002,1.1004,1.1012,1.1017,1.1025,1.1032,1.1039,1.1049,1.1057,1.1064,1.1073,1.1077,1.1079,1.1079,1.1079,1.108,1.1075,1.1073,1.1078,1.1078,1.1078,1.1078,1.1078,1.1078,1.0976,1.0985,1.0989,1.1,1.1006,1.1015,1.1019,1.1025,1.1031,1.1042,1.1049,1.1054,1.1061,1.107,1.1078,1.108,1.1083,1.1083,1.1086,1.1081,1.108,1.108,1.1078,1.1084,1.1084,1.109,1.109,1.109]},{"header":{"parameterUnit":"m.s-1","parameterCategory":1,"la1":30.2991,"la2":30.254,"lo1":-89.0895,"lo2":-89.0444,"dy":0.0017,"dx":0.0017,"nx":28,"ny":28,"refTime":"2024-02-12T03:00:00:Z","depth":0,"parameterNumber":3,"parameterNumberName":"V-component_of_WINDS"},"data":[0,0,0,0,0,0,0,0,0,0,0,0,0,0,0,0,0,0,0,0,0,0,0,0,0,0,0,0,0,0,0,0,0,0,0,0,0,0,0,0,0,0,0,0,0,0,0,0,0,0,0,0,0,0,0,0,0,0,-5.2211,-5.2212,0,-5.2337,-5.2339,-5.234,-5.2328,-5.2326,-5.2324,-5.2322,-5.2448,-5.2453,-5.2458,0,0,0,0,0,0,0,0,0,0,0,0,0,-5.1955,-5.196,-5.221,-5.2212,-5.2214,-5.2337,-5.2339,-5.234,-5.2328,-5.2326,-5.2324,-5.2321,-5.2447,-5.2453,-5.2459,0,0,0,0,0,0,0,0,0,0,0,0,0,-5.2072,-5.1962,-5.221,-5.2222,-5.2225,-5.2337,-5.2339,-5.2341,-5.2329,-5.2326,-5.2323,-5.232,-5.2444,-5.2452,-5.246,-5.2566,0,0,-5.2483,-5.2487,0,0,0,0,0,0,0,0,-5.2066,-5.2082,-5.2219,-5.2222,-5.2225,-5.2314,-5.2295,-5.2416,-5.233,-5.2289,-5.2322,-5.2319,-5.2406,-5.2416,-5.2446,-5.2572,-5.2577,-5.2484,-5.2489,-5.2492,-5.2494,0,0,0,0,0,0,0,-5.2058,-5.2076,-5.226,-5.2221,-5.2225,-5.2221,-5.2234,-5.2318,-5.2362,-5.2293,-5.2292,-5.2307,-5.2407,-5.2439,-5.2449,-5.2579,-5.2484,-5.2491,-5.2496,-5.2499,-5.28,-5.2803,0,0,0,0,0,0,-5.2047,-5.2069,-5.2256,-5.2264,-5.2137,-5.2228,-5.2243,-5.2288,-5.2361,-5.237,-5.231,-5.2306,-5.2427,-5.244,-5.2454,-5.2585,-5.2492,-5.2499,-5.2504,-5.2797,-5.2801,-5.2805,0,0,0,0,0,0,-5.2042,-5.2064,-5.2251,-5.2167,-5.219,-5.2235,-5.2286,-5.2292,-5.2325,-5.2374,-5.2382,-5.2335,-5.2425,-5.2443,-5.2539,-5.2589,-5.2503,-5.251,-5.2793,-5.2798,-5.2803,-5.2847,0,0,0,0,0,0,-5.2034,-5.2062,-5.2103,-5.2168,-5.2195,-5.2335,-5.2289,-5.2297,-5.2339,-5.2335,-5.24,-5.2408,-5.2424,-5.2528,-5.2547,-5.2598,-5.2516,-5.2789,-5.2795,-5.2801,-5.2841,-5.2853,-5.2863,0,0,0,0,0,-5.2025,-5.2109,-5.2106,-5.2128,-5.2248,-5.2338,-5.2354,-5.2372,-5.2343,-5.2385,-5.2417,-5.2406,-5.258,-5.2537,-5.2559,-5.2613,-5.2786,-5.2793,-5.2801,-5.2836,-5.2851,-5.2862,0,0,0,0,0,0,-5.2048,-5.2118,-5.2115,-5.2222,-5.2275,-5.2336,-5.239,-5.2386,-5.2447,-5.2441,-5.246,-5.2475,-5.2573,-5.2602,-5.2553,-5.2721,-5.2679,-5.2691,-5.2698,-5.2712,-5.2723,-5.2714,-5.2522,0,0,0,0,0,-5.2066,-5.2134,-5.2191,-5.2281,-5.2308,-5.2344,-5.2384,-5.2394,-5.2448,-5.247,-5.2509,-5.2561,-5.2628,-5.2672,-5.2735,-5.2845,-5.2859,-5.2893,-5.2904,-5.2912,-5.2923,-5.2985,-5.3001,-5.283,-5.2829,-5.2829,0,0,-5.2103,-5.215,-5.2191,-5.2287,-5.2329,-5.2399,-5.2363,-5.2438,-5.249,-5.2481,-5.2575,-5.2606,-5.2665,-5.2769,-5.2817,-5.2797,-5.2974,-5.2922,-5.2929,-5.2935,-5.2994,-5.301,-5.3025,-5.2835,-5.2834,-5.2833,0,0,-5.2207,-5.2249,-5.2329,-5.2372,-5.2436,-5.246,-5.2479,-5.2542,-5.2563,-5.2658,-5.2653,-5.2714,-5.2828,-5.2872,-5.2909,-5.3031,-5.3023,-5.3051,-5.3107,-5.3167,-5.3181,-5.3193,-5.3238,-5.3253,-5.3061,-5.3061,-5.3061,0,-5.2244,-5.2351,-5.237,-5.2447,-5.249,-5.2486,-5.2568,-5.2608,-5.2689,-5.2718,-5.2695,-5.284,-5.2879,-5.2994,-5.3024,-5.3054,-5.3077,-5.3044,-5.3177,-5.319,-5.3201,-5.3244,-5.3261,-5.3064,-5.3064,-5.3063,-5.3063,0,-5.2395,-5.2469,-5.2526,-5.2607,-5.2655,-5.2734,-5.2765,-5.2811,-5.2817,-5.2843,-5.2941,-5.2988,-5.3063,-5.309,-5.3096,-5.3207,-5.3193,-5.3173,-5.3131,-5.322,-5.3261,-5.3278,-5.3068,-5.3067,-5.3066,-5.3065,0,0,-5.2517,-5.2608,-5.2629,-5.2667,-5.2738,-5.2795,-5.2873,-5.2948,-5.2988,-5.3044,-5.3111,-5.3208,-5.3192,-5.3234,-5.3244,-5.3296,-5.3392,-5.3271,-5.3272,-5.3293,-5.3518,-5.3534,-5.3552,-5.3387,-5.339,-5.3393,-5.3514,0,-5.2629,-5.277,-5.279,-5.2914,-5.2983,-5.2982,-5.305,-5.3101,-5.3128,-5.319,-5.3218,-5.3288,-5.3259,-5.3285,-5.3337,-5.3369,-5.3438,-5.336,-5.3449,-5.3452,-5.3436,-5.3574,-5.359,-5.3702,-5.353,-5.3532,-5.3534,0,-5.2779,-5.2842,-5.2973,-5.3037,-5.3067,-5.3128,-5.3199,-5.3258,-5.3315,-5.3331,-5.3379,-5.3383,-5.3464,-5.3418,-5.3531,-5.3478,-5.3515,-5.3537,-5.3541,-5.3552,-5.35,-5.3589,-5.3738,-5.3755,-5.3559,-5.3557,-5.3556,0,-5.2857,-5.2974,-5.3068,-5.31,-5.3176,-5.3219,-5.3253,-5.3308,-5.3352,-5.3413,-5.3442,-5.3511,-5.3549,-5.3602,-5.3625,-5.3589,-5.3736,-5.3692,-5.3752,-5.3751,-5.3784,-5.3782,-5.3942,-5.3805,-5.3805,-5.3805,-5.3804,0,-5.2981,-5.3062,-5.3105,-5.3163,-5.3254,-5.3275,-5.3364,-5.3396,-5.3445,-5.3509,-5.3511,-5.357,-5.3596,-5.366,-5.3678,-5.3769,-5.3786,-5.3801,-5.3805,-5.3802,-5.38,-5.3827,-5.3821,-5.3809,-5.3808,-5.3807,-5.3807,0,-5.3083,-5.3115,-5.3219,-5.3283,-5.3301,-5.3365,-5.3419,-5.3476,-5.3502,-5.3583,-5.3603,-5.3645,-5.372,-5.3748,-5.3839,-5.3851,-5.3957,-5.3953,-5.3938,-5.3939,-5.3999,-5.3993,-5.4184,-5.4211,-5.4054,-5.4056,-5.4057,0,-5.3161,-5.3224,-5.3296,-5.334,-5.3375,-5.3445,-5.3491,-5.3515,-5.3562,-5.3633,-5.3681,-5.3756,-5.3818,-5.3938,-5.3976,-5.4046,-5.4045,-5.4107,-5.4056,-5.4051,-5.4048,-5.4045,-5.4052,-5.4117,-5.4119,-5.412,-5.4121,0,-5.3297,-5.331,-5.3376,-5.3449,-5.3504,-5.3562,-5.3618,-5.3653,-5.3685,-5.3738,-5.3816,-5.3864,-5.3958,-5.4033,-5.4105,-5.4139,-5.4136,-5.4137,-5.4155,-5.4153,-5.4142,-5.415,-5.3966,-5.4133,-5.4131,-5.4131,-5.413,-5.4129,-5.3391,-5.3447,-5.3507,-5.3581,-5.3626,-5.3679,-5.3736,-5.377,-5.3836,-5.3916,-5.3925,-5.401,-5.4066,-5.4163,-5.42,-5.4266,-5.4249,-5.4274,-5.4281,-5.4287,-5.4293,-5.4131,-5.4278,-5.4278,-5.4278,-5.4278,-5.4277,0,-5.3528,-5.3567,-5.3635,-5.3714,-5.3773,-5.3766,-5.3828,-5.3877,-5.3952,-5.4006,-5.4067,-5.4157,-5.423,-5.4274,-5.4348,-5.4392,-5.4392,-5.441,-5.4408,-5.4416,-5.4303,-5.4281,-5.4409,-5.4409,-5.4409,-5.4409,-5.4409,-5.4409,-5.3606,-5.3702,-5.3722,-5.384,-5.3878,-5.3962,-5.3998,-5.4047,-5.4091,-5.4192,-5.4253,-5.4282,-5.4332,-5.4409,-5.4476,-5.4487,-5.4514,-5.4534,-5.4544,-5.4437,-5.4424,-5.4411,-5.439,-5.454,-5.454,-5.4652,-5.4653,-5.4654]}]]